Regional Weather Roundup
Issued by NWS

Home | Current Version | Previous Version | Graphics & Text | Print | Product List | Glossary On
Versions: 1 2 3 4 5 6 7 8 9 10 11 12 13 14 15 16 17 18 19 20 21 22 23 24 25 26 27 28 29 30 31 32 33 34 35 36 37 38 39 40 41 42 43 44 45 46 47 48 49 50
000
ASUS45 KSLC 301410
RWRUT

UTAH REGIONAL WEATHER ROUNDUP
NATIONAL WEATHER SERVICE SALT LAKE CITY UT
800 AM MDT SAT MAY 30 2015

UTZ001>011-023>025-301500-

NORTHERN UTAH

CITY           SKY/WX    TMP DP  RH WIND       PRES   REMARKS
BRIGHAM CITY   SUNNY     54  46  75 CALM      30.12S
HILL AFB       SUNNY     57  40  53 E17       30.13S
LOGAN          SUNNY     51  47  86 CALM      30.14S
OGDEN          SUNNY     59  43  55 SE3       30.12S
PROVO AIRPORT  MOSUNNY   61  45  55 CALM      30.15S
SALT LAKE CITY PTSUNNY   64  46  52 S12       30.10S
VERNAL         SUNNY     55  42  61 E3        30.26R
WENDOVER       MOSUNNY   61  46  59 CALM      30.10S
HEBER CITY     SUNNY     50  43  76 CALM      30.23F
WEST JORDAN    SUNNY     63  45  51 S12G18    30.13S

$$

UTZ012>022-026-027-301500-

SOUTHERN/CENTRAL UTAH

CITY           SKY/WX    TMP DP  RH WIND       PRES   REMARKS
BLANDING       SUNNY     61  35  38 CALM      30.33R
BRYCE CANYON   PTSUNNY   47  38  71 W6        30.35S
CEDAR CITY     SUNNY     55  46  71 CALM      30.19R
DELTA          PTSUNNY   57  43  58 CALM      30.14S
HANKSVILLE     PTSUNNY   59  36  41 CALM      30.22R
MILFORD        SUNNY     53  47  79 S10       30.16R
MOAB/CYNLANDS  SUNNY     65  39  38 SE9       30.18R
PRICE          SUNNY     57  39  51 CALM      30.25R
ST GEORGE      SUNNY     70  39  32 N5        30.08S
KANAB          SUNNY     61  39  44 NW13      30.22R

$$

REGIONAL REPORTS     COLORADO/ARIZONA

CITY           SKY/WX    TMP DP  RH WIND       PRES   REMARKS
CRAIG, CO      SUNNY     50  40  68 E6        30.30F
GRAND JUNCTION SUNNY     60  41  49 SE12      30.24S
RIFLE          SUNNY     50  40  68 CALM      30.31R
MONTROSE       SUNNY     54  38  54 SE6       30.31S
CORTEZ         SUNNY     53  37  54 NE5       30.28S
PAGE, AZ       SUNNY     68  43  40 CALM      30.16S
GRAND CANYON   SUNNY     62  37  39 E3        30.28S
KINGMAN        SUNNY     72  18  13 CALM      30.06R
FLAGSTAFF      SUNNY     53  39  59 CALM      30.32R

$$

REGIONAL REPORTS    NEVADA/IDAHO/WYOMING

CITY           SKY/WX    TMP DP  RH WIND       PRES   REMARKS
LAS VEGAS, NV  MOSUNNY   78  27  15 S9        29.93R
ELY            CLOUDY    59  38  45 S14       30.19R
ELKO           MOSUNNY   60  46  59 NE3       30.09S
POCATELLO, ID  SUNNY     56  49  77 N7        30.10R
BURLEY         SUNNY     57  48  72 E7        30.03S
EVANSTON, WY   SUNNY     51  38  60 CALM      30.27R
ROCK SPRINGS   MOSUNNY   49  40  71 S5        30.28R
KEMMERER       SUNNY     48  41  76 N6        30.29S

$$


USA.gov is the U.S. government's official web portal to all federal, state and local government web resources and services.